| time (UTC) | temp F | wind direction | speed MPH | gust MPH | rain 1hr in | rain 24hr in | rain mn in | humidity % | barometer mb |
| 20260510180003 | 71 | 117 | 4.0 | 11.0 | 0.00 | 0.00 | 0.00 | 25 | 1025.0 |
| 20260510175403 | 70 | 107 | 5.0 | 11.0 | 0.00 | 0.00 | 0.00 | 25 | 1025.0 |
| 20260510174503 | 70 | 103 | 5.0 | 11.0 | 0.00 | 0.00 | 0.00 | 27 | 1025.0 |
| 20260510173603 | 69 | 99 | 6.0 | 11.0 | 0.00 | 0.00 | 0.00 | 26 | 1025.1 |
| 20260510172703 | 69 | 97 | 6.0 | 10.0 | 0.00 | 0.00 | 0.00 | 26 | 1025.1 |
| 20260510171803 | 68 | 98 | 5.0 | 10.0 | 0.00 | 0.00 | 0.00 | 28 | 1025.1 |
| 20260510170903 | 67 | 104 | 6.0 | 9.0 | 0.00 | 0.00 | 0.00 | 30 | 1025.2 |
| 20260510170003 | 66 | 107 | 5.0 | 11.0 | 0.00 | 0.00 | 0.00 | 32 | 1025.3 |
| 20260510165403 | 66 | 119 | 5.0 | 9.0 | 0.00 | 0.00 | 0.00 | 35 | 1025.2 |
| 20260510164503 | 65 | 115 | 4.0 | 9.0 | 0.00 | 0.00 | 0.00 | 36 | 1025.1 |
| 20260510163603 | 65 | 107 | 5.0 | 8.0 | 0.00 | 0.00 | 0.00 | 34 | 1025.1 |
| 20260510162703 | 64 | 128 | 6.0 | 9.0 | 0.00 | 0.00 | 0.00 | 36 | 1025.1 |
| 20260510161803 | 64 | 120 | 4.0 | 9.0 | 0.00 | 0.00 | 0.00 | 36 | 1025.1 |
| 20260510160903 | 63 | 109 | 4.0 | 9.0 | 0.00 | 0.00 | 0.00 | 37 | 1025.1 |
| 20260510160003 | 63 | 95 | 6.0 | 9.0 | 0.00 | 0.00 | 0.00 | 40 | 1025.1 |
| 20260510155424 | 63 | 97 | 5.0 | 9.0 | 0.00 | 0.00 | 0.00 | 41 | 1025.0 |
| 20260510154503 | 62 | 106 | 4.0 | 8.0 | 0.00 | 0.00 | 0.00 | 41 | 1025.1 |
| 20260510153603 | 61 | 103 | 4.0 | 8.0 | 0.00 | 0.00 | 0.00 | 41 | 1025.3 |
| 20260510152703 | 61 | 85 | 5.0 | 8.0 | 0.00 | 0.00 | 0.00 | 40 | 1025.3 |
| 20260510151824 | 60 | 87 | 3.0 | 6.0 | 0.00 | 0.00 | 0.00 | 40 | 1025.3 |
| 20260510150903 | 60 | 126 | 3.0 | 6.0 | 0.00 | 0.00 | 0.00 | 41 | 1025.3 |
| 20260510150003 | 59 | 114 | 2.0 | 6.0 | 0.00 | 0.00 | 0.00 | 43 | 1025.3 |
| 20260510145403 | 59 | 109 | 2.0 | 6.0 | 0.00 | 0.00 | 0.00 | 43 | 1025.2 |
| 20260510144503 | 58 | 111 | 1.0 | 4.0 | 0.00 | 0.00 | 0.00 | 44 | 1025.2 |
| 20260510143603 | 57 | 111 | 1.0 | 4.0 | 0.00 | 0.00 | 0.00 | 46 | 1025.1 |
| 20260510142703 | 56 | 111 | 1.0 | 4.0 | 0.00 | 0.00 | 0.00 | 49 | 1025.1 |
| 20260510141803 | 55 | 111 | 0.0 | 1.0 | 0.00 | 0.00 | 0.00 | 51 | 1025.1 |
| 20260510140903 | 53 | 0 | 0.0 | 0.0 | 0.00 | 0.00 | 0.00 | 52 | 1025.1 |
| 20260510140003 | 51 | 111 | 0.0 | 1.0 | 0.00 | 0.00 | 0.00 | 56 | 1025.0 |
| 20260510135403 | 49 | 0 | 0.0 | 0.0 | 0.00 | 0.00 | 0.00 | 58 | 1025.0 |
| 20260510134503 | 48 | 0 | 0.0 | 0.0 | 0.00 | 0.00 | 0.00 | 58 | 1024.9 |
| 20260510133624 | 47 | 0 | 0.0 | 5.0 | 0.00 | 0.00 | 0.00 | 58 | 1024.9 |
| 20260510132703 | 46 | 112 | 1.0 | 5.0 | 0.00 | 0.00 | 0.00 | 58 | 1024.8 |
| 20260510131803 | 45 | 112 | 2.0 | 5.0 | 0.00 | 0.00 | 0.00 | 59 | 1024.7 |
| 20260510130903 | 44 | 112 | 2.0 | 4.0 | 0.00 | 0.00 | 0.00 | 59 | 1024.6 |
| 20260510130003 | 43 | 112 | 1.0 | 6.0 | 0.00 | 0.00 | 0.00 | 60 | 1024.4 |
| 20260510125403 | 43 | 112 | 3.0 | 6.0 | 0.00 | 0.00 | 0.00 | 60 | 1024.3 |
| 20260510124503 | 42 | 90 | 3.0 | 6.0 | 0.00 | 0.00 | 0.00 | 60 | 1024.2 |
| 20260510123603 | 43 | 74 | 3.0 | 6.0 | 0.00 | 0.00 | 0.00 | 59 | 1024.2 |
| 20260510122703 | 44 | 82 | 2.0 | 5.0 | 0.00 | 0.00 | 0.00 | 57 | 1024.0 |
| 20260510121803 | 45 | 113 | 3.0 | 5.0 | 0.00 | 0.00 | 0.00 | 55 | 1023.9 |
| 20260510120903 | 44 | 113 | 3.0 | 5.0 | 0.00 | 0.00 | 0.00 | 57 | 1023.8 |
| 20260510120003 | 44 | 113 | 2.0 | 5.0 | 0.00 | 0.00 | 0.00 | 59 | 1023.8 |
| 20260510115403 | 43 | 113 | 0.0 | 4.0 | 0.00 | 0.00 | 0.00 | 59 | 1023.8 |
| 20260510114503 | 44 | 113 | 0.0 | 2.0 | 0.00 | 0.00 | 0.00 | 59 | 1023.7 |
| 20260510113603 | 44 | 113 | 1.0 | 2.0 | 0.00 | 0.00 | 0.00 | 59 | 1023.7 |
| 20260510112724 | 45 | 113 | 1.0 | 5.0 | 0.00 | 0.00 | 0.00 | 58 | 1023.6 |
| 20260510111803 | 45 | 113 | 2.0 | 5.0 | 0.00 | 0.00 | 0.00 | 58 | 1023.5 |
| 20260510110924 | 45 | 113 | 3.0 | 5.0 | 0.00 | 0.00 | 0.00 | 59 | 1023.5 |
| 20260510110003 | 44 | 113 | 3.0 | 5.0 | 0.00 | 0.00 | 0.00 | 59 | 1023.5 |
| 20260510105424 | 44 | 113 | 1.0 | 5.0 | 0.00 | 0.00 | 0.00 | 59 | 1023.5 |
| 20260510104503 | 44 | 113 | 1.0 | 2.0 | 0.00 | 0.00 | 0.00 | 58 | 1023.4 |
| 20260510103603 | 45 | 113 | 1.0 | 2.0 | 0.00 | 0.00 | 0.00 | 58 | 1023.5 |
| 20260510102703 | 44 | 113 | 1.0 | 2.0 | 0.00 | 0.00 | 0.00 | 59 | 1023.3 |
| 20260510101803 | 44 | 113 | 0.0 | 2.0 | 0.00 | 0.00 | 0.00 | 58 | 1023.3 |
| 20260510100903 | 45 | 113 | 0.0 | 2.0 | 0.00 | 0.00 | 0.00 | 57 | 1023.3 |
| 20260510100003 | 46 | 113 | 0.0 | 2.0 | 0.00 | 0.00 | 0.00 | 54 | 1023.2 |
| 20260510095424 | 46 | 0 | 0.0 | 5.0 | 0.00 | 0.00 | 0.00 | 55 | 1023.2 |
| 20260510094503 | 46 | 113 | 2.0 | 5.0 | 0.00 | 0.00 | 0.00 | 57 | 1023.2 |
| 20260510093603 | 46 | 113 | 2.0 | 5.0 | 0.00 | 0.00 | 0.00 | 58 | 1023.2 |
| 20260510092703 | 46 | 113 | 1.0 | 4.0 | 0.00 | 0.00 | 0.00 | 55 | 1023.1 |
| 20260510091803 | 46 | 0 | 0.0 | 0.0 | 0.00 | 0.00 | 0.00 | 52 | 1023.0 |
| 20260510090903 | 46 | 113 | 0.0 | 2.0 | 0.00 | 0.00 | 0.00 | 51 | 1023.0 |
| 20260510090003 | 46 | 0 | 0.0 | 0.0 | 0.00 | 0.00 | 0.00 | 52 | 1022.8 |
| 20260510085424 | 46 | 0 | 0.0 | 0.0 | 0.00 | 0.00 | 0.00 | 51 | 1022.8 |
| 20260510084503 | 47 | 0 | 0.0 | 2.0 | 0.00 | 0.00 | 0.00 | 51 | 1022.8 |
| 20260510083603 | 47 | 113 | 0.0 | 5.0 | 0.00 | 0.00 | 0.00 | 50 | 1022.8 |
| 20260510082724 | 48 | 113 | 2.0 | 5.0 | 0.00 | 0.00 | 0.00 | 49 | 1022.6 |
| 20260510081803 | 49 | 113 | 3.0 | 6.0 | 0.00 | 0.00 | 0.00 | 48 | 1022.7 |
| 20260510080903 | 48 | 65 | 4.0 | 6.0 | 0.00 | 0.00 | 0.00 | 48 | 1022.5 |
| 20260510080003 | 48 | 11 | 2.0 | 6.0 | 0.00 | 0.00 | 0.00 | 48 | 1022.5 |
| 20260510075403 | 49 | 22 | 1.0 | 4.0 | 0.00 | 0.00 | 0.00 | 47 | 1022.5 |
| 20260510074524 | 50 | 325 | 0.0 | 2.0 | 0.00 | 0.00 | 0.00 | 43 | 1022.5 |
| 20260510073603 | 51 | 306 | 1.0 | 5.0 | 0.00 | 0.00 | 0.00 | 40 | 1022.4 |
| 20260510072703 | 52 | 306 | 1.0 | 5.0 | 0.00 | 0.00 | 0.00 | 38 | 1022.4 |
| 20260510071803 | 52 | 321 | 4.0 | 6.0 | 0.00 | 0.00 | 0.00 | 38 | 1022.3 |
| 20260510070903 | 52 | 5 | 2.0 | 5.0 | 0.00 | 0.00 | 0.00 | 39 | 1022.2 |
| 20260510070003 | 52 | 254 | 4.0 | 5.0 | 0.00 | 0.00 | 0.00 | 38 | 1022.1 |
| 20260510065424 | 52 | 263 | 4.0 | 5.0 | 0.00 | 0.00 | 0.00 | 39 | 1022.0 |
| 20260510064503 | 52 | 338 | 3.0 | 5.0 | 0.00 | 0.00 | 0.00 | 38 | 1021.9 |
| 20260510063603 | 53 | 360 | 2.0 | 4.0 | 0.00 | 0.00 | 0.00 | 38 | 1021.9 |
| 20260510062703 | 52 | 332 | 2.0 | 4.0 | 0.00 | 0.00 | 0.00 | 41 | 1021.7 |
| 20260510061803 | 52 | 358 | 2.0 | 4.0 | 0.00 | 0.00 | 0.00 | 39 | 1021.6 |
| 20260510060903 | 53 | 353 | 2.0 | 4.0 | 0.00 | 0.00 | 0.00 | 39 | 1021.6 |
| 20260510060003 | 52 | 306 | 2.0 | 5.0 | 0.00 | 0.00 | 0.00 | 42 | 1021.5 |
| 20260510055403 | 52 | 288 | 2.0 | 5.0 | 0.00 | 0.00 | 0.00 | 43 | 1021.4 |
| 20260510054503 | 53 | 301 | 2.0 | 4.0 | 0.00 | 0.00 | 0.00 | 43 | 1021.4 |
| 20260510053603 | 53 | 305 | 1.0 | 2.0 | 0.00 | 0.00 | 0.00 | 39 | 1021.3 |
| 20260510052703 | 54 | 288 | 1.0 | 2.0 | 0.00 | 0.00 | 0.00 | 38 | 1021.3 |
| 20260510051803 | 54 | 287 | 1.0 | 2.0 | 0.00 | 0.00 | 0.00 | 37 | 1021.2 |
| 20260510050903 | 55 | 284 | 0.0 | 2.0 | 0.00 | 0.00 | 0.00 | 32 | 1021.2 |
| 20260510050003 | 55 | 284 | 0.0 | 2.0 | 0.00 | 0.00 | 0.00 | 33 | 1021.2 |
| 20260510045403 | 55 | 284 | 0.0 | 2.0 | 0.00 | 0.00 | 0.00 | 35 | 1021.2 |
| 20260510044503 | 56 | 284 | 0.0 | 1.0 | 0.00 | 0.00 | 0.00 | 35 | 1021.1 |
| 20260510043603 | 56 | 263 | 2.0 | 5.0 | 0.00 | 0.00 | 0.00 | 34 | 1021.0 |
| 20260510042703 | 57 | 262 | 4.0 | 5.0 | 0.00 | 0.00 | 0.00 | 32 | 1020.9 |
| 20260510041803 | 57 | 262 | 3.0 | 5.0 | 0.00 | 0.00 | 0.00 | 34 | 1020.9 |
| 20260510040903 | 57 | 266 | 2.0 | 4.0 | 0.00 | 0.00 | 0.00 | 31 | 1020.8 |
| 20260510040003 | 58 | 262 | 3.0 | 5.0 | 0.00 | 0.00 | 0.00 | 28 | 1020.7 |
| 20260510035403 | 58 | 269 | 3.0 | 5.0 | 0.00 | 0.00 | 0.00 | 28 | 1020.7 |
| 20260510034503 | 59 | 283 | 1.0 | 4.0 | 0.00 | 0.00 | 0.00 | 28 | 1020.6 |
| 20260510033603 | 59 | 283 | 0.0 | 2.0 | 0.00 | 0.00 | 0.00 | 29 | 1020.4 |
| 20260510032703 | 60 | 239 | 1.0 | 3.0 | 0.00 | 0.00 | 0.00 | 25 | 1020.3 |
| 20260510031824 | 61 | 205 | 1.0 | 4.0 | 0.00 | 0.00 | 0.00 | 25 | 1020.2 |
| 20260510030903 | 62 | 205 | 1.0 | 6.0 | 0.00 | 0.00 | 0.00 | 24 | 1020.1 |
| 20260510030024 | 62 | 205 | 4.0 | 6.0 | 0.00 | 0.00 | 0.00 | 24 | 1020.0 |
| 20260510025403 | 63 | 206 | 5.0 | 6.0 | 0.00 | 0.00 | 0.00 | 23 | 1019.8 |
| 20260510024503 | 64 | 200 | 5.0 | 6.0 | 0.00 | 0.00 | 0.00 | 23 | 1019.8 |
| 20260510023624 | 66 | 205 | 4.0 | 5.0 | 0.00 | 0.00 | 0.00 | 22 | 1019.7 |
| 20260510022703 | 67 | 296 | 1.0 | 5.0 | 0.00 | 0.00 | 0.00 | 19 | 1019.6 |
| 20260510021803 | 69 | 313 | 1.0 | 6.0 | 0.00 | 0.00 | 0.00 | 18 | 1019.6 |
| 20260510020924 | 69 | 313 | 4.0 | 9.0 | 0.00 | 0.00 | 0.00 | 18 | 1019.7 |
| 20260510020024 | 70 | 310 | 6.0 | 12.0 | 0.00 | 0.00 | 0.00 | 18 | 1019.5 |
| 20260510015403 | 70 | 317 | 7.0 | 12.0 | 0.00 | 0.00 | 0.00 | 18 | 1019.5 |
| 20260510014503 | 71 | 323 | 9.0 | 13.0 | 0.00 | 0.00 | 0.00 | 18 | 1019.4 |
| 20260510013603 | 72 | 317 | 8.0 | 12.0 | 0.00 | 0.00 | 0.00 | 18 | 1019.5 |
| 20260510012703 | 72 | 307 | 7.0 | 11.0 | 0.00 | 0.00 | 0.00 | 19 | 1019.5 |
| 20260510011803 | 72 | 304 | 10.0 | 18.0 | 0.00 | 0.00 | 0.00 | 17 | 1019.5 |
| 20260510010924 | 73 | 304 | 10.0 | 21.0 | 0.00 | 0.00 | 0.00 | 17 | 1019.5 |
| 20260510010003 | 73 | 311 | 13.0 | 21.0 | 0.00 | 0.00 | 0.00 | 17 | 1019.5 |
| 20260510005403 | 73 | 303 | 12.0 | 21.0 | 0.00 | 0.00 | 0.00 | 17 | 1019.4 |
| 20260510004503 | 73 | 298 | 13.0 | 22.0 | 0.00 | 0.00 | 0.00 | 16 | 1019.4 |
| 20260510003603 | 73 | 291 | 14.0 | 22.0 | 0.00 | 0.00 | 0.00 | 17 | 1019.4 |
| 20260510002703 | 74 | 300 | 12.0 | 24.0 | 0.00 | 0.00 | 0.00 | 18 | 1019.4 |
| 20260510001803 | 73 | 295 | 14.0 | 20.0 | 0.00 | 0.00 | 0.00 | 17 | 1019.5 |
| 20260510000903 | 73 | 300 | 15.0 | 25.0 | 0.00 | 0.00 | 0.00 | 18 | 1019.5 |
| 20260510000003 | 73 | 306 | 17.0 | 27.0 | 0.00 | 0.00 | 0.00 | 17 | 1019.6 |
| 20260509235403 | 73 | 306 | 17.0 | 25.0 | 0.00 | 0.00 | 0.00 | 17 | 1019.5 |
| 20260509234503 | 74 | 296 | 15.0 | 26.0 | 0.00 | 0.00 | 0.00 | 16 | 1019.5 |
| 20260509233603 | 74 | 296 | 13.0 | 26.0 | 0.00 | 0.00 | 0.00 | 17 | 1019.5 |
| 20260509232703 | 74 | 300 | 14.0 | 26.0 | 0.00 | 0.00 | 0.00 | 19 | 1019.6 |
| 20260509231803 | 74 | 296 | 13.0 | 22.0 | 0.00 | 0.00 | 0.00 | 19 | 1019.7 |
| 20260509230903 | 73 | 291 | 16.0 | 24.0 | 0.00 | 0.00 | 0.00 | 20 | 1019.8 |
| 20260509230003 | 73 | 294 | 18.0 | 28.0 | 0.00 | 0.00 | 0.00 | 19 | 1019.7 |
| 20260509225403 | 73 | 283 | 18.0 | 27.0 | 0.00 | 0.00 | 0.00 | 19 | 1019.5 |
| 20260509224503 | 74 | 288 | 17.0 | 29.0 | 0.00 | 0.00 | 0.00 | 19 | 1019.5 |
| 20260509223603 | 74 | 290 | 18.0 | 29.0 | 0.00 | 0.00 | 0.00 | 19 | 1019.6 |
| 20260509222703 | 74 | 288 | 17.0 | 29.0 | 0.00 | 0.00 | 0.00 | 18 | 1019.7 |
| 20260509221803 | 75 | 289 | 14.0 | 24.0 | 0.00 | 0.00 | 0.00 | 20 | 1019.8 |
| 20260509220903 | 74 | 290 | 13.0 | 28.0 | 0.00 | 0.00 | 0.00 | 20 | 1019.8 |
| 20260509220003 | 74 | 280 | 13.0 | 28.0 | 0.00 | 0.00 | 0.00 | 20 | 1019.9 |
| 20260509215403 | 73 | 272 | 15.0 | 28.0 | 0.00 | 0.00 | 0.00 | 22 | 1020.1 |
| 20260509214503 | 73 | 272 | 12.0 | 24.0 | 0.00 | 0.00 | 0.00 | 21 | 1020.2 |
| 20260509213624 | 74 | 286 | 14.0 | 24.0 | 0.00 | 0.00 | 0.00 | 20 | 1020.2 |
| 20260509212703 | 73 | 287 | 14.0 | 23.0 | 0.00 | 0.00 | 0.00 | 21 | 1020.2 |
| 20260509211803 | 73 | 280 | 12.0 | 20.0 | 0.00 | 0.00 | 0.00 | 23 | 1020.2 |
| 20260509210924 | 72 | 263 | 11.0 | 19.0 | 0.00 | 0.00 | 0.00 | 22 | 1020.2 |
| 20260509210003 | 73 | 277 | 11.0 | 19.0 | 0.00 | 0.00 | 0.00 | 22 | 1020.4 |
| 20260509205403 | 74 | 284 | 12.0 | 21.0 | 0.00 | 0.00 | 0.00 | 22 | 1020.3 |
| 20260509204503 | 73 | 279 | 13.0 | 23.0 | 0.00 | 0.00 | 0.00 | 22 | 1020.4 |
| 20260509203603 | 74 | 297 | 14.0 | 25.0 | 0.00 | 0.00 | 0.00 | 23 | 1020.4 |
| 20260509202703 | 74 | 289 | 14.0 | 24.0 | 0.00 | 0.00 | 0.00 | 23 | 1020.4 |
| 20260509201803 | 73 | 294 | 14.0 | 24.0 | 0.00 | 0.00 | 0.00 | 24 | 1020.5 |
| 20260509200903 | 74 | 296 | 14.0 | 23.0 | 0.00 | 0.00 | 0.00 | 22 | 1020.7 |
| 20260509200024 | 73 | 287 | 14.0 | 21.0 | 0.00 | 0.00 | 0.00 | 23 | 1020.7 |
| 20260509195403 | 72 | 279 | 15.0 | 22.0 | 0.00 | 0.00 | 0.00 | 23 | 1020.7 |
| 20260509194503 | 72 | 275 | 13.0 | 20.0 | 0.00 | 0.00 | 0.00 | 23 | 1020.7 |
| 20260509193603 | 72 | 296 | 13.0 | 20.0 | 0.00 | 0.00 | 0.00 | 23 | 1020.9 |
| 20260509192703 | 72 | 292 | 15.0 | 24.0 | 0.00 | 0.00 | 0.00 | 23 | 1021.0 |
| 20260509191803 | 71 | 290 | 14.0 | 22.0 | 0.00 | 0.00 | 0.00 | 24 | 1021.1 |
| 20260509190903 | 72 | 295 | 15.0 | 24.0 | 0.00 | 0.00 | 0.00 | 23 | 1021.1 |
| 20260509190003 | 71 | 283 | 15.0 | 24.0 | 0.00 | 0.00 | 0.00 | 22 | 1021.1 |
| 20260509185403 | 72 | 282 | 15.0 | 24.0 | 0.00 | 0.00 | 0.00 | 23 | 1021.2 |
| 20260509184500 | 71 | 284 | 16.0 | 24.0 | 0.00 | 0.00 | 0.00 | 23 | 1021.3 |
| 20260509183600 | 70 | 288 | 15.0 | 24.0 | 0.00 | 0.00 | 0.00 | 24 | 1021.4 |
| 20260509182700 | 70 | 289 | 16.0 | 24.0 | 0.00 | 0.00 | 0.00 | 23 | 1021.3 |
| 20260509181800 | 71 | 305 | 15.0 | 23.0 | 0.00 | 0.00 | 0.00 | 23 | 1021.3 |
| 20260509180900 | 70 | 299 | 14.0 | 26.0 | 0.00 | 0.00 | 0.00 | 24 | 1021.3 |